GFSNIL_prec_precacc_162.txt.gz
Total_Precipitation_Accumulation
0.40 0.31 0.25 0.17 0.43 0.81 0.54 0.35 0.46 0.41 0.36 0.31 0.36 0.14 0.26 0.20 0.15 0.22 0.22 0.16 0.13 0.07
0.17 0.14 0.16 0.34 0.43 0.50 1.09 0.78 1.09 0.69 0.48 0.37 0.29 0.21 0.32 0.26 0.32 0.38 0.29 0.16 0.17 0.17
0.09 0.09 0.11 0.32 0.38 0.76 1.09 1.26 2.68 1.51 0.48 0.41 0.41 0.32 0.51 0.45 0.35 0.42 0.26 0.13 0.27 0.32
0.10 0.10 0.13 0.22 0.25 0.26 0.43 0.68 0.78 1.11 0.70 0.57 0.40 0.38 0.77 0.67 0.43 0.53 0.35 0.18 0.24 0.15
0.28 0.16 0.10 0.17 0.17 0.18 0.28 0.44 0.50 0.52 0.75 0.61 0.39 0.49 0.94 0.59 0.42 0.69 0.47 0.26 0.22 0.20
0.53 0.28 0.16 0.09 0.12 0.18 0.24 0.22 0.25 0.47 0.92 0.77 0.50 0.60 0.66 0.95 0.77 0.52 0.55 0.42 0.43 0.44
0.85 0.46 0.27 0.28 0.28 0.19 0.20 0.14 0.16 0.26 0.50 0.62 0.63 0.41 0.55 0.92 0.84 0.62 0.59 0.84 0.68 0.48
1.50 1.11 1.10 1.05 0.94 0.75 0.65 0.43 0.25 0.24 0.46 0.81 0.79 0.55 0.72 0.82 0.68 0.78 0.62 0.85 0.78 0.71
1.79 2.02 1.96 1.83 2.22 1.71 1.51 1.37 1.02 0.72 0.70 0.78 0.59 0.93 0.98 0.65 0.89 0.88 0.85 0.94 0.88 1.00
2.46 2.34 1.98 1.95 2.22 2.28 2.51 2.20 1.84 1.57 1.45 1.27 1.12 1.03 0.78 0.87 0.75 0.94 1.02 0.96 0.90 0.91
2.86 3.16 2.89 2.27 2.15 2.48 2.48 2.21 2.06 1.84 1.85 1.71 1.55 1.29 1.15 1.31 0.85 0.61 0.75 0.90 0.73 0.77
2.50 3.18 3.59 3.43 2.96 2.81 2.94 2.71 2.49 2.56 2.73 2.31 1.66 1.82 1.44 1.53 1.13 0.74 0.86 1.00 0.79 0.64
1.58 1.74 1.95 2.48 2.77 2.63 2.71 2.76 2.52 2.15 1.81 1.93 1.71 2.04 1.86 1.54 0.97 0.74 0.64 0.50 0.52 0.52
1.83 1.79 1.76 1.76 2.43 2.79 3.01 2.68 2.28 2.11 2.48 2.32 2.40 2.28 2.17 1.91 1.58 1.34 0.88 0.65 0.55 0.45

GFSNIL_prec_precacc_165.txt.gz
Total_Precipitation_Accumulation
0.40 0.31 0.25 0.17 0.46 0.84 0.56 0.36 0.47 0.41 0.36 0.31 0.36 0.15 0.28 0.21 0.17 0.25 0.25 0.20 0.14 0.07
0.17 0.14 0.16 0.34 0.43 0.51 1.10 0.82 1.12 0.70 0.48 0.37 0.29 0.21 0.34 0.28 0.35 0.40 0.30 0.18 0.19 0.17
0.09 0.09 0.11 0.32 0.38 0.76 1.10 1.29 2.70 1.51 0.48 0.43 0.45 0.33 0.51 0.46 0.36 0.44 0.27 0.18 0.30 0.33
0.11 0.10 0.13 0.22 0.25 0.26 0.43 0.70 0.78 1.11 0.71 0.58 0.42 0.39 0.77 0.67 0.44 0.54 0.36 0.20 0.27 0.17
0.29 0.17 0.10 0.17 0.17 0.18 0.28 0.44 0.50 0.53 0.75 0.64 0.43 0.50 0.95 0.62 0.44 0.70 0.47 0.26 0.23 0.24
0.53 0.30 0.17 0.09 0.12 0.18 0.24 0.22 0.27 0.49 0.93 0.79 0.52 0.61 0.67 1.00 0.81 0.53 0.55 0.42 0.43 0.44
0.85 0.47 0.27 0.28 0.28 0.19 0.20 0.14 0.16 0.26 0.50 0.62 0.63 0.41 0.55 0.93 0.86 0.62 0.59 0.85 0.69 0.49
1.50 1.13 1.11 1.05 0.94 0.75 0.65 0.43 0.25 0.24 0.46 0.81 0.79 0.55 0.72 0.82 0.68 0.78 0.63 0.85 0.78 0.71
1.80 2.02 1.98 1.87 2.24 1.72 1.51 1.37 1.02 0.72 0.70 0.78 0.59 0.93 0.98 0.65 0.89 0.88 0.86 0.95 0.89 1.00
2.46 2.34 1.98 1.98 2.25 2.28 2.51 2.21 1.85 1.57 1.45 1.27 1.12 1.03 0.78 0.88 0.75 0.94 1.02 0.97 0.91 0.92
2.86 3.16 2.89 2.28 2.15 2.50 2.53 2.23 2.07 1.86 1.88 1.74 1.55 1.30 1.15 1.31 0.86 0.61 0.75 0.91 0.77 0.81
2.51 3.25 3.63 3.45 2.98 2.82 2.95 2.72 2.49 2.57 2.73 2.31 1.67 1.85 1.52 1.63 1.17 0.74 0.86 1.00 0.83 0.68
1.58 1.74 1.96 2.53 2.81 2.65 2.71 2.77 2.54 2.18 1.88 2.01 1.74 2.14 2.00 1.74 1.07 0.75 0.65 0.50 0.52 0.52
1.83 1.79 1.76 1.76 2.43 2.81 3.06 2.84 2.56 2.24 2.56 2.38 2.44 2.35 2.34 2.17 1.85 1.56 1.09 0.70 0.55 0.46

GFSNIL_prec_precacc_168.txt.gz
Total_Precipitation_Accumulation
0.40 0.31 0.25 0.17 0.46 0.84 0.56 0.36 0.47 0.44 0.36 0.31 0.36 0.15 0.28 0.21 0.17 0.25 0.26 0.20 0.14 0.07
0.17 0.14 0.16 0.34 0.43 0.51 1.10 0.82 1.12 0.70 0.49 0.37 0.29 0.21 0.34 0.28 0.35 0.40 0.31 0.21 0.20 0.19
0.09 0.09 0.11 0.32 0.38 0.76 1.10 1.29 2.70 1.51 0.48 0.43 0.46 0.34 0.51 0.46 0.36 0.44 0.27 0.21 0.31 0.34
0.11 0.10 0.13 0.22 0.25 0.26 0.43 0.70 0.78 1.11 0.71 0.58 0.42 0.40 0.78 0.67 0.44 0.54 0.36 0.20 0.27 0.17
0.29 0.17 0.10 0.17 0.17 0.18 0.28 0.44 0.50 0.53 0.75 0.64 0.43 0.50 0.96 0.63 0.45 0.72 0.49 0.26 0.23 0.24
0.53 0.30 0.17 0.09 0.12 0.18 0.24 0.22 0.27 0.49 0.93 0.80 0.52 0.61 0.67 1.01 0.82 0.55 0.56 0.42 0.43 0.44
0.85 0.47 0.27 0.28 0.28 0.19 0.20 0.14 0.16 0.26 0.50 0.62 0.63 0.41 0.55 0.93 0.87 0.63 0.60 0.85 0.69 0.50
1.50 1.13 1.11 1.05 0.94 0.75 0.65 0.43 0.25 0.24 0.46 0.81 0.79 0.55 0.72 0.82 0.68 0.78 0.63 0.85 0.78 0.74
1.81 2.03 1.99 1.87 2.24 1.72 1.51 1.37 1.02 0.72 0.70 0.78 0.59 0.93 0.98 0.65 0.89 0.88 0.86 0.96 0.90 1.01
2.46 2.35 2.00 1.98 2.25 2.28 2.51 2.21 1.85 1.57 1.45 1.27 1.12 1.03 0.78 0.88 0.75 0.94 1.02 0.97 0.91 0.92
2.86 3.16 2.89 2.28 2.15 2.50 2.53 2.23 2.07 1.86 1.88 1.74 1.55 1.31 1.17 1.35 0.87 0.61 0.75 0.92 0.77 0.81
2.51 3.25 3.63 3.45 2.98 2.83 2.96 2.73 2.50 2.57 2.74 2.31 1.67 1.85 1.54 1.69 1.18 0.74 0.86 1.00 0.83 0.68
1.58 1.74 1.96 2.53 2.81 2.65 2.71 2.77 2.54 2.18 1.88 2.01 1.74 2.15 2.04 1.82 1.12 0.75 0.65 0.50 0.52 0.52
1.83 1.79 1.76 1.76 2.43 2.81 3.06 2.84 2.57 2.25 2.56 2.38 2.45 2.36 2.39 2.25 1.88 1.58 1.10 0.72 0.56 0.46

GFSNIL_prec_precacc_171.txt.gz
Total_Precipitation_Accumulation
0.40 0.31 0.25 0.17 0.46 0.84 0.56 0.36 0.47 0.44 0.36 0.31 0.36 0.15 0.28 0.21 0.17 0.27 0.28 0.21 0.15 0.13
0.17 0.14 0.16 0.34 0.43 0.51 1.10 0.82 1.12 0.70 0.49 0.37 0.29 0.21 0.34 0.28 0.36 0.44 0.32 0.23 0.20 0.22
0.09 0.09 0.11 0.32 0.38 0.76 1.10 1.29 2.70 1.51 0.48 0.43 0.46 0.34 0.51 0.48 0.36 0.46 0.30 0.25 0.35 0.37
0.11 0.10 0.13 0.22 0.25 0.26 0.43 0.70 0.78 1.11 0.71 0.59 0.44 0.41 0.78 0.69 0.44 0.55 0.40 0.27 0.35 0.23
0.29 0.17 0.10 0.17 0.17 0.18 0.28 0.44 0.50 0.53 0.75 0.64 0.45 0.53 1.01 0.69 0.48 0.78 0.54 0.33 0.30 0.30
0.53 0.30 0.17 0.09 0.12 0.18 0.24 0.22 0.27 0.49 0.93 0.80 0.52 0.61 0.69 1.04 0.87 0.57 0.58 0.44 0.47 0.48
0.85 0.47 0.27 0.28 0.28 0.19 0.20 0.14 0.16 0.26 0.50 0.62 0.63 0.41 0.55 0.93 0.87 0.63 0.60 0.85 0.70 0.52
1.50 1.13 1.11 1.05 0.94 0.75 0.65 0.43 0.25 0.24 0.46 0.81 0.79 0.55 0.72 0.82 0.68 0.78 0.63 0.85 0.78 0.74
1.81 2.04 1.99 1.87 2.24 1.72 1.51 1.37 1.02 0.72 0.70 0.78 0.59 0.93 0.98 0.65 0.89 0.88 0.86 0.96 0.90 1.01
2.46 2.35 2.02 2.01 2.26 2.29 2.51 2.21 1.85 1.57 1.45 1.27 1.12 1.03 0.78 0.88 0.75 0.94 1.02 0.97 0.91 0.92
2.86 3.16 2.89 2.28 2.16 2.52 2.53 2.23 2.07 1.86 1.88 1.74 1.55 1.31 1.17 1.36 0.87 0.61 0.75 0.92 0.77 0.81
2.51 3.25 3.63 3.45 2.98 2.83 2.96 2.73 2.50 2.57 2.74 2.31 1.67 1.87 1.54 1.69 1.18 0.74 0.86 1.00 0.83 0.68
1.58 1.74 1.96 2.53 2.81 2.65 2.72 2.78 2.55 2.18 1.88 2.01 1.74 2.15 2.05 1.82 1.12 0.75 0.65 0.50 0.52 0.52
1.83 1.79 1.76 1.76 2.43 2.81 3.06 2.85 2.57 2.25 2.57 2.38 2.45 2.36 2.39 2.26 1.88 1.58 1.10 0.72 0.56 0.46